Back to catalog

YAOGAN 25C

AliveMilitaryLEO
NORAD 40340·PAYLOAD·🇨🇳 China

Launched Dec 10, 2014 from Jiuquan Satellite Launch Center

Loading…

Next Passes (next 24 hours)

TLE

FreshSource: Space-Track

Epoch: Sep 14, 2026, 15:07 UTC

1 40340U 14080C   26257.62999118 -.00000119  00000-0 -31023-4 0  9997
2 40340  63.3840  80.8400 0374751  10.1003 350.7290 13.45355663577780

Track YAOGAN 25C in real time with AllMySat

Download on the App Store